Regional Weather Roundup
Issued by NWS

Home | Current Version | Previous Version | Graphics & Text | Print | Product List | Glossary On
Versions: 1 2 3 4 5 6 7 8 9 10 11 12 13 14 15 16 17 18 19 20 21 22 23 24 25 26 27 28 29 30 31 32 33 34 35 36 37 38 39 40 41 42 43 44 45 46 47 48 49 50
000
ASUS43 KOAX 201310
RWRNE

WEATHER ROUNDUP FOR NEBRASKA
NATIONAL WEATHER SERVICE OMAHA NE
700 AM CST SAT DEC 20 2014

NOTES: SATELLITE DATA IS BEING USED TO AUGMENT CLOUD COVER ABOVE
       12000 FEET.
       "FAIR" INDICATES FEW OR NO CLOUDS BELOW 12,000 FEET WITH NO
       SIGNIFICANT WEATHER AND/OR OBSTRUCTIONS TO VISIBILITY.

  * THESE STATIONS DO NOT REPORT WEATHER SUCH AS RAIN...SNOW OR FOG.

NEZ001>004-019>022-054>056-201400-
NEBRASKA PANHANDLE

CITY           SKY/WX    TMP DP  RH WIND       PRES   REMARKS
SCOTTSBLUFF    PTCLDY    13   9  84 E5        29.96S WCI   5
ALLIANCE       PTCLDY     8   5  87 SW8       29.95S WCI  -4
CHADRON        PTCLDY    18  13  80 SW10      29.94F WCI   6
KIMBALL        CLOUDY    26  19  77 W6        29.96S WCI  19
SIDNEY         PTCLDY    20  13  74 W13       29.98S WCI   7
$$

NEZ057>060-069>072-079>082-201400-
SOUTHWEST NEBRASKA

CITY           SKY/WX    TMP DP  RH WIND       PRES   REMARKS
NORTH PLATTE   CLEAR     16  13  88 NW3       30.01S
IMPERIAL       PTCLDY    18  14  84 W6        30.00F WCI  10
LEXINGTON      CLEAR     21  19  91 W5        30.03R FOG     WCI  14
MCCOOK         CLEAR     22  19  89 W6        30.03S WCI  14
OGALLALA       PTCLDY    13  11  92 W5        30.00S WCI   5
$$

NEZ005>010-023>029-035>040-094-201400-
NORTH CENTRAL NEBRASKA

CITY           SKY/WX    TMP DP  RH WIND       PRES   REMARKS
VALENTINE      CLEAR     12   9  87 SW8       29.96F WCI   0
AINSWORTH      PTCLDY    20  16  82 SW7       29.97S WCI  11
BROKEN BOW     PTCLDY    18  15  88 CALM      30.00R
O`NEILL        PTCLDY   N/A N/A N/A CALM      30.01S HAZE
THEDFORD       PTCLDY    19  17  90 CALM      29.97F
$$

NEZ041-046>049-061>064-073>077-083>087-201400-
SOUTH CENTRAL NEBRASKA

CITY           SKY/WX    TMP DP  RH WIND       PRES   REMARKS
GRAND ISLAND   FOG       29  29 100 CALM      30.06R VSB 1/4
AURORA         FOG       31  31 100 CALM      30.05S VSB 1/4
HASTINGS       FOG       27  23  85 CALM      30.04S VSB 1/4
HEBRON         FOG       30  28  95 W3        30.09R VSB 1/2
HOLDREGE       CLEAR     21  19  91 W3        30.03R
KEARNEY *      CLEAR     18  14  86 CALM      30.04R
YORK           CLOUDY    32  32 100 CALM      30.07R FOG
$$

NEZ011>018-030>034-042>045-201400-
NORTHEAST NEBRASKA

CITY           SKY/WX    TMP DP  RH WIND       PRES   REMARKS
NORFOLK        CLOUDY    32  30  92 S7        30.06R FOG     WCI  26
ALBION         FOG       31  29  94 S3        30.05R VSB 1/2
BLAIR          FOG       32  31  96 SE5       30.09S VSB 1   WCI  28
COLUMBUS *     CLOUDY    32  27  80 S7        30.08S WCI  26
FREMONT        CLOUDY    32  32  99 SE3       30.10S FOG
TEKAMAH        CLOUDY    32  31  96 SE7       30.11R FOG     WCI  26
WAYNE          CLOUDY    32  31  96 S7        30.08R WCI  26
$$

NEZ050>053-065>068-078-088>093-201400-
SOUTHEAST NEBRASKA

CITY           SKY/WX    TMP DP  RH WIND       PRES   REMARKS
LINCOLN        CLOUDY    33  31  92 SW7       30.10R WCI  27
OMAHA EPPLEY   FRZ DRZL  32  31  96 S9        30.12R FOG     WCI  24
BEATRICE       FOG       32  32 100 SW8       30.09R VSB 1   WCI  25
FALLS CITY     CLOUDY    33  29  85 SE5       30.12S WCI  29
NEBRASKA CITY  CLOUDY    31  31 100 SE6       30.11S FOG     WCI  26
PLATTSMOUTH    CLOUDY    31  30  95 SE7       30.10S FOG     WCI  24
$$

NEZ044-045-051>053-067-201400-
OMAHA AREA

CITY           SKY/WX    TMP DP  RH WIND       PRES   REMARKS
OMAHA EPPLEY   FRZ DRZL  32  31  96 S9        30.12R FOG     WCI  24
BLAIR          FOG       32  31  96 SE5       30.09S VSB 1   WCI  28
FREMONT        CLOUDY    32  32  99 SE3       30.10S FOG
MILLARD        CLOUDY    32  31  97 SE6       30.11S FOG     WCI  27
OFFUTT AFB     CLOUDY    32  32 100 SE8       30.11R FOG     WCI  25
PLATTSMOUTH    CLOUDY    31  30  95 SE7       30.10S FOG     WCI  24
WAHOO          CLOUDY    32  31  94 SE6       30.09S FOG     WCI  26
$$


USA.gov is the U.S. government's official web portal to all federal, state and local government web resources and services.